Simultaneous Nadir Overpasses (SNOs) Predictions

Prediction of SNOs between METOP-A and NOAA-19 Satellite Orbit:

Table of predicted SNOs for the next 14.0 days since TLE Epoch: 6/5/2020
Index Date (METOP-A) Time (METOP-A) Lat,Lon (METOP-A) SZA (METOP-A ) Date (NOAA-19) Time (NOAA-19) Lat,Lon (NOAA-19) SZA (NOAA-19 ) Distance(km) Time Diff (sec)
1 06/13/2020 11:10:40 -80.54,-154.09 122.48 06/13/2020 11:09:35 -80.54,-153.93 122.49 3.02 65
2 06/13/2020 12:01:20 80.54, 13.34 57.53 06/13/2020 12:00:35 80.53, 13.43 57.52 2.13 45
3 06/13/2020 12:52:02 -80.52,-179.57 122.50 06/13/2020 12:51:36 -80.54,-179.57 122.49 1.90 26
4 06/13/2020 13:42:42 80.53, -12.14 57.51 06/13/2020 13:42:36 80.54, -12.22 57.51 1.50 6
5 06/13/2020 14:33:23 -80.54, 155.27 122.48 06/13/2020 14:33:36 -80.53, 155.14 122.49 2.43 13
6 06/13/2020 15:24:04 80.52, -37.62 57.49 06/13/2020 15:24:36 80.53, -37.51 57.51 2.15 32
7 06/13/2020 16:14:45 -80.53, 129.79 122.50 06/13/2020 16:15:36 -80.52, 129.85 122.50 1.26 51




NCC Satellite Simultaneous Nadir Overpasses (SNOs) Prediction Service
